Find OneWeb SL0417

NORAD ID: 50492 Int'l Des: 2021-132 Owner: ONEWEBN Country: UK Constellation: oneweb operational
LEOCIRCULARPOLARONEWEB_TYPE

リアルタイム位置

3D地球を読み込み中...

OneWeb SL0417について

説明を読み込み中...

次回通過

Passes for default location (London). Set your location on the main map for personalized predictions.

高度履歴

Loading altitude history...

軌道要素

1 50492U 21132Z 26119.61801148 -.00000003 00000-0 -40064-4 0 9990
2 50492 87.9191 345.1220 0001642 90.0715 270.0605 13.18636898215202
Epoch: Apr 29, 2026 • Age: 7 hours

現在のステータス

高度 1192.0 km
速度 7.26 km/s
衛星直下点 20.29°N, 154.66°E
打ち上げ日 Dec 27, 2021
運用期間 4.3 years
タイプ internet

技術仕様

分類 Payload
質量 148.00 kg
乾燥質量 140.00 kg
総質量 148.00 kg
長さ 1.30 m
直径 1.00 m
スパン 5.00 m
形状 Trapezoid+2 pan
製造者 ONEWUS
バスタイプ ARROW
フェーズステータス In Orbit
所有者/国 ONEWEBN/UK

Most Searched